SCP
0 0 0 0 0 0 0 0 0 0 0 0 0 0 0 0 0 0 0 0 0 0 0 0 0 0 0 0 0 0 0 0 0 0 0 0 0 0
0 0 0 0 0 0 0 0 0 0 0 0 0 0 0 0 0 0 0 0 0 0 0 0 0 0 0 0 0 0 0 0 0 0 0 0 0 0
0 0 0 0 0 0 0 0 0 0 0 0 0 0 0 0 0 0 0 0 0 0 0 0 0 0 0 0 0 0 0 0 0 0 0 0 0 0
0 0 0 0 0 0 0 0 0 0 0 0 0 0 0 0 0 0 0 0 0 0 0 0 0 0 0 0 0 0 0 0 0 0 0 0 0 0
0 0 0 0 0 0 0 0 0 0 0 0 0 0 0 0 0 0 0 0 0 0 0 0 0 0 0 0 0 0 0 0 0 0 0 0 0 0
0 0 0 0 0 0 0 0 0 0 0 0 0 0 0 0 0 0 0 0 0 0 0 0 0 0 0 0 0 0 0 0 0 0 0 0 0 0
0 0 0 0 0 0 0 0 0 0 0 0 0 0 0 0 0 0 0 0 0 0 0 0 0 0 0 0 0 0 0 0 0 0 0 0 0 0
0 0 0 0 0 0 0 0 0 0 0 0 0 0 0 0 0 0 0 0 0 0 0 0 0 0 0 0 0 0 0 0 0 0 0 0 0 0
0 0 0 0 0 0 0 0 0 0 0 0 0 0 0 0 0 0 0 0 0 0 0 0 0 0 0 0 0 0 0 0 0 0 0 0 0 0
0 0 0 0 0 0 0 0 0 0 0 0 0 -0 -0 -0 0 0 0 0 0 0 0 0 0 0 0 0 0 0 0 0 0 0 0 0 0 0
0 0 0 0 0 0 0 0 0 0 0 0 0 0 0 0 0 0 -0 0 0 0 0 0 0 0 0 0 0 0 0 0 0 0 0 0 0 0
0 0 0 0 0 0 0 0 0 0 0 0 0 0 0 0 0 0 0 0 0 0 0 0 0 0 0 0 0 0 0 0 0 0 0 0 0 0
0 0 0 0 0 0 0 0 0 0 0 0 0 0 0 0 0 0 0 0 0 0 0 0 0 0 0 0 0 0 0 0 0 0 0 0 0 0
0 0 0 0 0 0 0 0 0 0 0 0 0 0 0 -0 0 0 0 0 0 0 0 0 0 0 0 0 0 0 0 0 0 0 0 0 0 0
0 0 0 0 0 0 0 0 0 0 0 0 0 0 0 0 0 0 0 0 0 0 0 0 0 0 0 0 0 0 0 0 0 0 0 0 0 0
0 0 0 0 0 0 0 0 0 0 0 0 0 0 0 0 0 0 0 0 0 0 0 0 0 0 0 0 0 0 0 0 0 0 0 0 0 0
0 0 0 0 0 0 0 0 0 0 0 0 0 0 0 0 0 0 0 0 0 0 0 0 0 0 0 0 0 0 0 0 0 0 0 0 0 0
0 0 0 0 0 0 0 0 0 0 0 0 0 0 0 0 0 0 0 0 0 0 0 0 0 0 0 0 0 0 0 0 0 0 0 0 0 0
0 0 0 0 0 0 0 0 0 0 0 0 0 0 0 0 0 0 0 0 0 0 0 0 0 0 0 -0 -0 0 0 0 0 0 0 0 0 0
0 0 0 0 0 0 0 0 0 0 0 0 0 0 0 0 0 0 0 0 0 0 0 0 0 0 0 -0 -0 0 0 -0 -0 -0 0 0 0 0
0 0 0 0 0 0 0 0 0 0 0 0 0 0 0 0 0 0 0 0 0 0 0 0 0 0 0 -0 -0 0 0 -0 -0 -0 -0 0 0 0
0 0 0 0 0 0 0 0 0 0 0 0 0 0 0 0 0 0 0 0 0 0 0 0 0 0 0 0 0 0 0 0 -0 -0 0 0 0 0
0 0 0 0 0 0 0 0 0 0 0 0 0 0 0 0 0 0 0 0 0 0 0 0 0 0 0 0 0 0 0 0 0 -0 0 0 0 0
Wind_Speed
4 4 3 2 2 2 2 3 3 2 1 2 2 3 3 2 3 2 2 2 2 1 1 1 1 1 1 2 3 4 6 7 9 10 12 14 16 17
3 3 3 2 2 2 2 2 2 3 2 1 2 2 3 4 5 3 3 3 2 2 1 1 1 1 2 2 3 4 6 7 9 11 12 13 15 16
4 5 5 4 3 3 3 2 2 3 3 2 3 4 5 5 5 4 4 3 2 3 2 1 1 2 2 3 4 5 6 8 10 12 13 14 16 17
6 6 6 6 6 4 3 4 3 3 4 4 3 4 5 5 5 5 4 4 3 5 4 2 2 3 3 4 4 5 7 9 10 12 13 15 17 19
7 7 6 7 6 5 6 5 5 6 5 5 3 3 3 3 4 4 5 4 4 5 5 3 3 4 4 4 5 6 7 9 10 12 13 15 17 19
7 7 6 6 6 6 7 6 7 7 6 5 4 3 3 3 4 4 4 4 3 5 5 4 4 5 5 5 5 6 8 9 11 12 13 14 16 17
7 6 7 8 9 7 6 5 7 6 5 5 4 4 4 4 4 3 3 3 3 3 3 3 3 3 3 4 5 8 9 10 11 12 13 14 15 16
7 6 7 8 10 11 10 9 8 7 5 4 3 3 3 3 3 3 3 4 4 4 3 3 2 2 2 2 5 8 9 10 11 12 13 13 13 14
6 5 6 6 6 6 9 10 9 9 6 5 4 2 1 2 2 4 3 2 2 4 3 4 3 3 3 3 6 7 8 9 11 11 12 12 12 11
6 6 6 5 5 6 7 7 6 5 5 4 2 1 0 1 0 0 2 2 3 3 3 3 4 3 3 3 5 6 7 8 10 11 12 12 11 10
5 5 6 6 8 10 8 6 6 5 6 8 6 5 6 6 4 3 4 4 3 4 3 2 4 4 3 3 4 6 7 7 8 10 11 12 11 9
4 4 6 8 9 10 7 6 6 4 4 6 7 7 6 7 8 4 2 2 2 3 4 3 3 4 4 3 3 3 4 5 7 8 10 12 12 6
4 2 2 8 9 9 7 5 4 3 4 5 5 5 5 5 5 4 2 2 2 2 4 3 3 3 3 4 4 3 4 3 4 4 6 9 11 8
5 3 3 7 8 8 6 6 8 7 4 4 4 4 4 4 4 4 5 3 2 1 4 3 2 2 3 3 4 5 4 4 4 4 3 5 6 9
5 8 7 6 6 5 5 7 6 5 4 4 3 2 2 2 3 4 6 5 5 5 6 5 3 2 2 3 4 4 4 4 5 5 4 4 4 4
5 5 5 4 4 3 3 4 3 3 4 3 2 1 2 3 4 3 3 4 4 5 6 6 5 4 3 3 3 4 5 5 5 5 4 4 4 4
6 3 2 2 2 2 2 2 2 3 3 2 2 3 3 3 3 3 3 3 3 3 5 6 5 3 3 3 4 4 5 4 5 5 4 4 5 5
7 4 3 3 3 3 3 2 2 2 3 3 2 2 2 2 2 2 3 3 3 3 3 4 5 5 5 4 3 3 4 4 5 5 4 4 4 5
4 4 4 3 3 4 4 4 3 3 3 3 3 2 2 2 2 2 2 3 2 3 3 3 3 3 4 5 6 4 3 4 5 5 5 4 4 4
3 4 4 4 4 5 5 5 4 3 3 3 3 2 2 2 2 1 1 2 2 2 4 4 3 2 1 2 3 5 5 3 3 4 4 3 2 2
4 4 4 4 4 5 6 6 5 5 4 4 3 3 3 3 2 2 2 2 2 2 3 3 4 5 1 2 4 5 5 4 3 2 3 3 3 4
5 5 5 5 5 5 6 6 5 5 5 4 4 4 3 3 4 3 3 2 1 1 1 2 4 4 4 4 3 4 5 6 5 5 3 2 2 3
6 6 5 5 5 5 5 7 7 6 5 5 5 5 4 4 4 4 3 3 2 2 2 3 4 4 3 2 2 3 4 5 4 5 5 6 4 4
Wind_Direction
193 185 167 169 164 159 165 161 152 139 7 338 355 351 359 18 10 10 344 333 349 325 301 269 239 244 253 258 261 266 266 263 261 259 256 252 245 239
151 140 129 118 105 99 107 116 133 143 143 354 359 350 5 18 17 11 352 355 1 356 341 287 261 259 266 273 280 282 278 273 269 266 260 255 250 244
110 111 101 102 91 81 84 89 88 111 115 47 16 11 25 19 7 9 14 19 11 18 11 340 312 296 292 294 297 296 293 287 282 277 270 262 254 248
98 94 89 86 75 71 77 72 72 86 109 94 30 17 22 14 14 16 11 20 20 23 18 3 342 320 305 301 302 302 299 294 289 283 278 270 261 254
93 90 86 86 79 70 69 71 75 81 85 92 53 16 11 9 8 8 11 9 15 19 18 10 353 341 326 315 312 308 306 301 295 288 281 273 266 259
83 83 82 85 85 79 76 76 85 83 78 77 58 24 9 344 13 6 1 358 5 10 10 15 14 12 4 355 339 329 320 311 304 297 290 281 270 260
80 75 76 80 80 82 88 85 88 87 80 76 60 40 19 10 359 343 356 338 341 356 349 352 357 3 2 356 346 334 325 318 312 306 300 292 279 265
97 84 74 64 71 75 82 85 94 99 97 86 70 58 21 360 346 356 359 10 348 337 351 329 341 337 325 330 337 336 334 329 325 319 313 306 294 276
98 87 78 62 64 75 71 66 64 75 99 117 95 75 37 340 3 8 8 12 319 311 348 328 327 319 309 320 335 339 340 338 336 333 328 321 314 299
93 95 92 70 73 90 81 67 53 44 53 78 111 136 165 259 197 303 299 340 326 327 18 347 318 310 308 311 324 333 337 340 342 345 345 341 337 328
85 90 96 86 88 94 87 75 52 24 38 62 75 74 55 47 55 45 25 32 357 321 348 359 311 310 310 309 317 329 333 339 346 351 356 357 356 353
84 78 90 100 94 93 92 85 67 29 37 51 48 38 34 31 39 59 77 61 19 331 321 346 324 337 328 312 322 335 334 333 341 351 359 6 6 8
127 118 105 106 98 93 94 89 95 103 75 71 56 34 22 21 17 20 46 95 80 343 310 345 336 335 322 310 321 329 339 334 333 342 358 12 18 23
153 158 152 125 104 92 82 82 87 87 78 66 55 35 22 7 356 7 24 43 74 45 334 3 4 334 339 341 327 324 333 350 351 347 352 4 21 35
162 169 162 134 99 77 68 81 82 82 81 74 62 31 346 341 4 15 15 21 23 21 18 16 18 3 25 5 332 329 330 342 353 354 358 9 12 15
144 159 145 116 90 79 63 64 78 101 112 107 95 31 16 28 26 23 26 15 24 355 351 6 19 34 23 1 5 354 347 344 344 350 359 11 20 28
134 106 99 95 83 69 62 67 76 87 95 92 79 57 40 37 17 8 31 40 42 359 341 340 349 20 59 36 15 357 348 344 344 348 2 19 28 29
137 140 157 165 169 164 151 139 124 124 128 118 98 87 73 62 28 11 32 47 38 359 339 335 353 7 7 2 30 4 350 344 341 353 5 16 26 33
141 159 171 184 187 174 167 163 166 165 150 136 124 113 101 87 67 36 25 34 27 3 339 340 9 34 27 350 325 9 10 342 348 360 8 15 23 22
164 170 183 187 182 170 169 168 163 157 153 152 146 137 125 114 92 67 56 59 44 20 6 358 1 1 346 280 297 319 1 8 358 357 351 356 17 30
184 181 181 180 181 175 172 172 169 169 168 164 166 165 157 137 125 119 109 83 78 51 27 344 308 323 308 33 11 340 330 351 16 2 349 3 4 5
183 186 186 185 182 180 174 171 173 175 173 173 177 177 172 156 149 148 139 123 111 104 34 331 343 10 33 37 2 327 330 337 350 4 18 29 33 8
186 186 187 188 186 182 179 176 177 183 184 183 182 182 177 169 164 157 152 144 136 112 56 9 1 11 9 10 356 337 341 344 349 358 351 1 26 37